Location: Apeadero de Los Molinos-Guadarrama
(40.7091°N, 4.0689°W)
Time: 12:08:55
(UTC+00:00)

Nadezhda 3 Rocket - Pass Details

Date: 14 May 2021
Orbit: 956 x 1000 km, 82.9° (Epoch: 18 June)

Event Time Altitude Azimuth Distance (km) Brightness Sun altitude
Exits shadow 23:52:47 85° 328° (NNW) 984 3.9 -30.2°
Drops below altitude 10° 23:58:52 10° 7° (N) 2,717 7.2 -30.3°
Sets 00:01:22 0° 8° (N) 3,662 8.1 -30.4°
